Stations météo

réclame
Mon MeteoGroup
Arvidsjaur, Suède (2149): Température de l'air & dewpoint: 17.04.2018 03:00:00 - 23.04.2018 03:00:00 (CEST)Arvidsjaur, Suède (2149): Vitesse du vent & gusts: 17.04.2018 03:00:00 - 23.04.2018 03:00:00 (CEST)Arvidsjaur, Suède (2149): Direction du vent: 17.04.2018 03:00:00 - 23.04.2018 03:00:00 (CEST)Arvidsjaur, Suède (2149): reduced air pressure: 17.04.2018 03:00:00 - 23.04.2018 03:00:00 (CEST)Arvidsjaur, Suède (2149): visibility: 17.04.2018 03:00:00 - 23.04.2018 03:00:00 (CEST)Arvidsjaur, Suède (2149): Quantités de précipitations: 17.04.2018 03:00:00 - 23.04.2018 03:00:00 (CEST)
Date & Time tt [°C] td [°C] ff [km/h] ff [knt] fx [km/h] fx [knt] dd ppp [hPa] vv [km] rr [mm]
23.04.2018 03:00:00 0,1 -1,7 3 2 6 3 ESE 1012,2 50 0,0
23.04.2018 02:00:00 -0,2 -1,8 3 2 4 2 E 1012,8 50 0,0
23.04.2018 01:00:00 0,0 -2,1 3 1 5 3 ENE 1013,0 50 0,0
23.04.2018 00:00:00 0,7 -1,9 0 0 6 3 N 1013,1 50 0,0
22.04.2018 23:00:00 1,7 -1,9 3 1 5 3 WNW 1013,1 50 0,0
22.04.2018 22:00:00 2,5 -1,5 0 0 5 3 N 1012,9 50 0,0
22.04.2018 21:00:00 5,8 -1,4 3 2 5 3 SE 1012,4 50 0,0
22.04.2018 20:00:00 8,2 -3,3 4 2 9 5 WNW 1011,7 50 0,0
22.04.2018 19:00:00 7,9 -2,4 7 4 16 8 NW 1011,9 50 0,0
22.04.2018 18:00:00 7,6 -1,9 9 5 15 8 NW 1011,9 50 0,0
22.04.2018 17:00:00 8,4 -2,0 8 5 18 10 WNW 1011,9 45 0,0
22.04.2018 16:00:00 7,4 -1,3 11 6 20 11 WNW 1012,1 50 0,0
22.04.2018 15:00:00 7,3 -1,1 6 3 15 8 WNW 1012,3 50 0,0
22.04.2018 14:00:00 6,8 -0,4 7 4 12 7 WNW 1012,5 50 0,0
22.04.2018 13:00:00 6,7 -0,1 3 1 8 4 N 1012,4 48 0,0
22.04.2018 12:00:00 5,5 0,3 4 2 8 4 ESE 1012,6 40 0,0
22.04.2018 11:00:00 3,9 0,6 5 3 8 4 E 1012,8 46 0,0
22.04.2018 10:00:00 3,1 0,0 3 2 9 5 E 1012,7 35 0,0
22.04.2018 09:00:00 1,3 -0,8 5 3 9 5 SE 1012,6 43 0,0
22.04.2018 08:00:00 0,6 -1,8 3 2 9 5 SSE 1012,2 50 0,0
22.04.2018 07:00:00 -0,1 -0,8 4 2 6 3 SSE 1011,7 33 0,0
22.04.2018 06:00:00 -0,3 -0,9 3 1 4 2 SSE 1011,4 34 0,0
22.04.2018 05:00:00 -0,4 -1,1 0 0 5 3 N 1011,0 50 0,0
22.04.2018 04:00:00 -0,5 -1,3 3 2 6 3 WNW 1010,6 50 0,0
22.04.2018 03:00:00 -0,6 -1,2 2 1 6 3 N 1009,8 31 0,0
22.04.2018 02:00:00 -0,6 -1,2 4 2 8 5 NE 1009,0 23 0,0
22.04.2018 01:00:00 -0,4 -1,1 6 4 10 5 NE 1008,2 50 0,0
22.04.2018 00:00:00 -0,2 -0,3 5 3 11 6 NE 1007,1 11 0,0
21.04.2018 23:00:00 0,0 0,0 7 4 11 6 ENE 1006,0 2,4 0,2
21.04.2018 22:00:00 0,2 0,1 3 2 11 6 E 1005,1 2,5 0,1
21.04.2018 21:00:00 0,5 0,2 8 4 13 7 E 1004,2 18 0,0
21.04.2018 20:00:00 0,9 0,6 9 5 13 7 E 1003,2 20 0,8
21.04.2018 19:00:00 2,2 1,9 7 4 9 5 E 1002,3 11 1,0
21.04.2018 18:00:00 3,7 2,5 5 3 8 4 N 1001,3 20 0,1
21.04.2018 17:00:00 3,1 1,8 9 5 16 9 NW 1001,0 9 0,0
21.04.2018 16:00:00 4,5 0,8 10 5 17 9 NW 1000,3 30 0,0
21.04.2018 15:00:00 4,5 1,0 8 5 12 7 WNW 1000,0 31 0,5
21.04.2018 14:00:00 3,8 2,3 6 3 15 8 W 999,9 9 1,3
21.04.2018 13:00:00 4,2 1,4 7 4 10 6 ESE 999,5 47 0,0
21.04.2018 12:00:00 4,9 0,5 3 1 11 6 NW 999,0 33 0,4
21.04.2018 11:00:00 5,1 -0,3 4 2 7 4 WNW 998,5 50 0,0
21.04.2018 10:00:00 4,6 -0,4 3 2 6 3 NNW 998,1 50 0,0
21.04.2018 09:00:00 3,2 -0,4 4 2 9 5 ESE 998,2 43 0,0
21.04.2018 08:00:00 2,7 -0,2 2 1 6 4 SSE 998,4 48 0,0
21.04.2018 07:00:00 1,3 -0,2 3 1 6 3 E 998,6 50 0,0
21.04.2018 06:00:00 0,9 -0,4 0 0 9 5 N 998,9 50 0,0
21.04.2018 05:00:00 0,4 -0,7 3 2 8 5 WNW 999,4 50 0,0
21.04.2018 04:00:00 -0,3 -1,6 0 0 7 4 N 1000,1 50 0,0
21.04.2018 03:00:00 0,4 -1,0 0 0 4 2 N 1000,5 50 0,0
21.04.2018 02:00:00 0,2 -2,7 3 2 10 5 NNE 1001,2 50 0,0
21.04.2018 01:00:00 1,9 -0,8 7 4 11 6 W 1001,4 50 0,0
21.04.2018 00:00:00 0,7 -1,9 6 4 12 6 NNW 1002,1 50 0,0
20.04.2018 23:00:00 3,1 -0,7 5 3 10 5 WNW 1002,7 50 0,0
20.04.2018 22:00:00 5,3 -0,5 6 3 10 5 W 1003,3 50 0,0
20.04.2018 21:00:00 4,2 -0,6 3 2 10 5 E 1004,4 50 0,0
20.04.2018 20:00:00 7,1 -1,3 5 3 10 5 W 1004,4 50 0,0
20.04.2018 19:00:00 7,4 -1,1 6 3 20 11 WNW 1005,0 50 0,0
20.04.2018 18:00:00 8,5 -0,5 14 7 27 15 W 1005,7 50 0,0
20.04.2018 17:00:00 7,8 -1,2 10 6 19 11 WNW 1006,9 47 0,0
20.04.2018 16:00:00 7,0 -0,9 17 9 28 15 NW 1008,0 50 0,0
20.04.2018 15:00:00 7,8 -0,9 19 10 31 17 NW 1008,8 47 0,0
20.04.2018 14:00:00 7,8 -0,9 17 9 29 15 WNW 1009,2 50 0,0
20.04.2018 13:00:00 7,6 -0,4 22 12 30 16 NW 1009,7 49 0,0
20.04.2018 12:00:00 7,1 0,3 21 11 29 16 WNW 1010,3 50 0,0
20.04.2018 11:00:00 6,5 1,4 22 12 31 17 WNW 1010,7 50 0,0
20.04.2018 10:00:00 6,4 2,3 14 8 24 13 WNW 1010,9 49 0,0
20.04.2018 09:00:00 5,3 3,5 8 5 16 9 NNW 1011,7 50 0,0
20.04.2018 08:00:00 5,6 3,6 10 5 18 10 W 1012,0 42 0,0
20.04.2018 07:00:00 4,1 2,9 11 6 15 8 NNW 1012,4 34 0,0
20.04.2018 06:00:00 4,8 3,5 10 5 16 9 W 1012,9 42 0,0
20.04.2018 05:00:00 2,7 2,6 6 3 11 6 NE 1014,1 13 0,0
20.04.2018 04:00:00 4,6 3,7 8 5 12 7 SW 1014,3 40 0,0
20.04.2018 03:00:00 4,2 3,6 7 4 15 8 S 1015,2 43 0,0
20.04.2018 02:00:00 2,4 2,0 8 5 11 6 E 1016,7 26 0,1
20.04.2018 01:00:00 3,2 2,6 9 5 12 7 SE 1017,5 50 0,6
20.04.2018 00:00:00 3,5 2,2 6 3 8 4 SSE 1018,7 15 1,0
19.04.2018 23:00:00 6,6 0,9 5 3 10 5 S 1019,1 50 0,0
19.04.2018 22:00:00 5,4 0,4 6 3 9 5 S 1019,9 50 0,0
19.04.2018 21:00:00 7,2 0,8 7 4 9 5 SSW 1020,3 50 0,0
19.04.2018 20:00:00 8,1 0,8 6 3 9 5 SSW 1020,9 50 0,0
19.04.2018 19:00:00 9,5 0,7 4 2 7 4 WSW 1021,4 50 0,0
19.04.2018 18:00:00 9,4 0,8 5 3 16 9 NW 1021,7 50 0,0
19.04.2018 17:00:00 9,2 0,6 9 5 16 9 WNW 1022,4 47 0,0
19.04.2018 16:00:00 8,9 0,6 11 6 17 9 NW 1022,9 47 0,0
19.04.2018 15:00:00 9,6 0,5 10 5 24 13 W 1023,1 50 0,0
19.04.2018 14:00:00 9,0 0,7 13 7 23 12 WNW 1023,4 50 0,0
19.04.2018 13:00:00 8,9 0,8 11 6 18 10 WNW 1023,3 47 0,0
19.04.2018 12:00:00 8,4 1,5 13 7 23 12 WNW 1023,2 50 0,0
19.04.2018 11:00:00 7,1 1,6 14 8 25 13 WNW 1023,1 46 0,0
19.04.2018 10:00:00 5,8 1,5 20 11 31 17 WNW 1023,2 50 0,0
19.04.2018 09:00:00 5,9 0,8 17 9 29 16 WNW 1022,9 47 0,0
19.04.2018 08:00:00 4,4 1,1 13 7 18 10 NW 1022,9 50 0,0
19.04.2018 07:00:00 3,6 1,0 12 6 26 14 WNW 1022,8 50 0,0
19.04.2018 06:00:00 3,4 0,8 17 9 23 13 WNW 1022,3 50 0,0
19.04.2018 05:00:00 2,5 0,4 14 8 21 11 NW 1021,9 50 0,0
19.04.2018 04:00:00 3,0 0,2 14 8 21 11 WNW 1021,5 50 0,0
19.04.2018 03:00:00 3,1 -0,4 16 9 26 14 WNW 1021,0 50 0,0
19.04.2018 02:00:00 3,5 -0,7 16 9 22 12 WNW 1020,4 50 0,0
19.04.2018 01:00:00 3,4 -1,0 17 9 24 13 WNW 1020,0 50 0,0
19.04.2018 00:00:00 3,7 -1,3 18 10 27 15 WNW 1019,4 50 0,0
18.04.2018 23:00:00 4,4 -1,2 17 9 24 13 WNW 1018,6 50 0,0
18.04.2018 22:00:00 4,3 -1,3 13 7 18 10 WNW 1018,1 50 0,0
18.04.2018 21:00:00 4,8 -1,0 12 7 23 12 NW 1017,8 50 0,0
18.04.2018 20:00:00 7,5 -1,7 9 5 16 9 W 1017,1 50 0,0
18.04.2018 19:00:00 8,8 -1,6 9 5 23 12 W 1016,6 50 0,0
18.04.2018 18:00:00 10,2 -2,5 6 4 13 7 W 1016,2 45 0,0
18.04.2018 17:00:00 10,4 -2,6 6 3 14 8 SW 1015,9 50 0,0
18.04.2018 16:00:00 10,7 -3,4 12 6 24 13 SW 1016,0 45 0,0
18.04.2018 15:00:00 11,3 -4,4 10 5 22 12 S 1016,1 50 0,0
18.04.2018 14:00:00 11,2 -4,9 10 5 22 12 S 1016,4 43 0,0
18.04.2018 13:00:00 11,4 -4,7 11 6 20 11 SSW 1016,4 39 0,0
18.04.2018 12:00:00 10,8 -4,8 14 8 23 12 SW 1016,6 48 0,0
18.04.2018 11:00:00 11,3 -4,4 11 6 18 10 S 1016,5 42 0,0
18.04.2018 10:00:00 8,0 -3,5 5 3 9 5 ESE 1017,4 39 0,0
18.04.2018 09:00:00 4,6 -5,5 0 0 4 2 N 1018,1 40 0,0
18.04.2018 08:00:00 0,6 -4,6 2 1 3 2 E 1019,0 50 0,0
18.04.2018 07:00:00 -1,8 -5,6 0 0 5 3 N 1019,4 45 0,0
18.04.2018 06:00:00 -5,8 -7,0 3 2 4 2 WNW 1019,9 45 0,0
18.04.2018 05:00:00 -4,7 -6,2 0 0 3 2 N 1020,0 50 0,0
18.04.2018 04:00:00 -4,9 -6,0 3 1 8 4 NW 1020,1 50 0,0
18.04.2018 03:00:00 -4,4 -5,5 4 2 5 3 WNW 1020,2 50 0,0
18.04.2018 02:00:00 -3,5 -5,3 0 0 5 3 N 1020,1 50 0,0
18.04.2018 01:00:00 -2,0 -4,7 0 0 4 2 N 1020,1 50 0,0
18.04.2018 00:00:00 -0,4 -4,6 0 0 5 3 N 1020,0 50 0,0
17.04.2018 23:00:00 1,1 -4,3 0 0 6 3 N 1019,7 50 0,0
17.04.2018 22:00:00 2,5 -4,3 4 2 7 4 SSW 1019,2 50 0,0
17.04.2018 21:00:00 6,4 -4,7 3 2 6 3 S 1018,4 34 0,0
17.04.2018 20:00:00 9,2 -4,7 0 0 4 2 N 1017,4 50 0,0
17.04.2018 19:00:00 11,3 -5,2 3 2 5 3 S 1016,9 47 0,0
17.04.2018 18:00:00 11,6 -5,8 0 0 7 4 N 1016,8 45 0,0
17.04.2018 17:00:00 11,0 -4,3 0 0 9 5 N 1016,8 50 0,0
17.04.2018 16:00:00 11,8 -5,7 3 1 13 7 E 1016,7 44 0,0
17.04.2018 15:00:00 10,9 -5,6 5 3 10 6 N 1017,0 42 0,0
17.04.2018 14:00:00 11,2 -4,9 2 1 11 6 N 1016,9 50 0,0
17.04.2018 13:00:00 10,0 -5,2 5 3 12 7 NNE 1017,3 37 0,0
17.04.2018 12:00:00 9,0 -4,9 9 5 17 9 NE 1017,4 43 0,0
17.04.2018 11:00:00 7,9 -4,5 10 6 21 12 NNE 1017,5 40 0,0
17.04.2018 10:00:00 7,0 -4,4 7 4 11 6 WNW 1017,2 41 0,0
17.04.2018 09:00:00 5,3 -5,1 8 5 13 7 W 1017,3 43 0,0
17.04.2018 08:00:00 1,5 -4,4 10 5 12 7 NW 1017,6 47 0,0
17.04.2018 07:00:00 -0,9 -5,7 8 4 14 8 WNW 1017,6 46 0,0
17.04.2018 06:00:00 -1,9 -5,6 12 7 14 8 WNW 1017,3 50 0,0
17.04.2018 05:00:00 -2,1 -5,6 11 6 14 8 WNW 1017,0 50 0,0
17.04.2018 04:00:00 -2,5 -5,1 9 5 13 7 WNW 1017,0 50 0,0
17.04.2018 03:00:00 -3,2 -5,7 11 6 13 7 WNW 1017,0 50 0,0

tt = Température de l'air
td = dewpoint
ff = Vitesse du vent
fx = gusts
dd = Direction du vent
ppp = reduced air pressure
vv = visibility
rr = Quantités de précipitations

stations d'obs. à proximité